Stockton, CA

6:56 AM PDT on April 27, 2017 (GMT -0700)
Stockton Metro

Weather History for KSCK - August, 2014

Change the Weather History Date:

Wednesday, August 13, 2014

  Actual Average Record
Temperature  
Mean Temperature 72 °F -  
Max Temperature 89 °F 93 °F 108 °F (1996)
Min Temperature 55 °F 59 °F 52 °F (1988)
Degree Days  
Heating Degree Days 0 0  
Month to date heating degree days 0 0  
Since 1 June heating degree days 0 7  
Since 1 July heating degree days 0 0  
Cooling Degree Days 7 11  
Month to date cooling degree days 161 147  
Year to date cooling degree days 1048 859  
Since 1 June cooling degree days 865 740  
Growing Degree Days 22 (Base 50)    
Moisture  
Dew Point 56 °F    
Average Humidity 63    
Maximum Humidity 93    
Minimum Humidity 32    
Precipitation  
Precipitation 0.00 in 0.00 in 0.05 in (1991)
Month to date precipitation 0.01 0.00  
Year to date precipitation 5.81 9.03  
Since 1 July precipitation 0.01  
Snow  
Snow 0.00 in - - ()
Month to date snowfall 0.0  
Since 1 June snowfall 0.0  
Since 1 July snowfall 0.0  
Snow Depth -    
Sea Level Pressure  
Sea Level Pressure 29.92 in    
Wind  
Wind Speed 8 mph (NW)    
Max Wind Speed 14 mph    
Max Gust Speed 22 mph    
Visibility 10 miles    
Events      
T = Trace of Precipitation, MM = Missing Value Source: NWS Daily Summary

Daily Weather History Graph

Daily Weather History Graph

Search for Another Location

Airport or City:

Trip Planner

Search our weather history database for the weather conditions in past years. The results will help you decide how hot, cold, wet, or windy it might be!

Date:

Astronomy

Aug. 13, 2014 Rise Set
Actual Time 6:18 AM PDT 8:00 PM PDT
Civil Twilight 5:50 AM PDT 8:28 PM PDT
Nautical Twilight 5:16 AM PDT 9:02 PM PDT
Astronomical Twilight 4:40 AM PDT 9:38 PM PDT
Moon 9:53 PM PDT (8/13) 9:48 AM PDT (8/13)
Length of Visible Light 14h 37m
Length of Day
13h 41m
Waning Gibbous, 87% of the Moon is Illuminated
Aug 13
Waning Gibbous
Aug 17
Last Quarter
Aug 25
New
Sep 2
First Quarter
Sep 8
Full

Hourly Weather History & Observations

Time (PDT) Temp. Heat Index Dew Point Humidity Pressure Visibility Wind Dir Wind Speed Gust Speed Precip Events Conditions
12:55 AM 63.0 °F - 55.9 °F 78% 29.89 in 10.0 mi NW 6.9 mph - N/A   Clear
1:55 AM 62.1 °F - 55.9 °F 80% 29.90 in 10.0 mi NW 6.9 mph - N/A   Clear
2:55 AM 60.1 °F - 55.0 °F 83% 29.90 in 10.0 mi North 5.8 mph - N/A   Clear
3:55 AM 60.1 °F - 55.0 °F 83% 29.91 in 10.0 mi North 6.9 mph - N/A   Clear
7:55 AM 62.6 °F - 55.4 °F 77% 29.94 in 7.0 mi North 4.6 mph - N/A   Clear
8:55 AM 66.9 °F - 55.9 °F 68% 29.95 in 10.0 mi NNW 4.6 mph - N/A   Clear
9:55 AM 71.1 °F - 54.0 °F 55% 29.96 in 10.0 mi WNW 5.8 mph - N/A   Clear
10:55 AM 75.9 °F - 54.0 °F 46% 29.97 in 10.0 mi WNW 8.1 mph - N/A   Clear
11:55 AM 80.1 °F - 52.0 °F 38% 29.96 in 10.0 mi West 9.2 mph - N/A   Clear
12:55 PM 84.0 °F 82.6 °F 54.0 °F 35% 29.95 in 10.0 mi WNW 10.4 mph - N/A   Clear
1:55 PM 84.9 °F 83.3 °F 54.0 °F 34% 29.93 in 10.0 mi NW 9.2 mph - N/A   Clear
2:55 PM 87.1 °F 85.3 °F 55.0 °F 33% 29.92 in 10.0 mi NW 10.4 mph - N/A   Clear
3:55 PM 89.1 °F 87.1 °F 55.0 °F 31% 29.90 in 10.0 mi NW 11.5 mph 21.9 mph N/A   Clear
4:55 PM 88.0 °F 86.5 °F 55.9 °F 34% 29.88 in 10.0 mi NW 8.1 mph - N/A   Clear
5:55 PM 87.1 °F 85.7 °F 55.9 °F 35% 29.88 in 10.0 mi NW 11.5 mph - N/A   Scattered Clouds
6:55 PM 84.0 °F 83.0 °F 55.9 °F 38% 29.87 in 10.0 mi NW 17.3 mph - N/A   Clear
9:55 PM 73.0 °F - 59.0 °F 61% 29.91 in 10.0 mi NNW 8.1 mph - N/A   Clear
10:55 PM 73.0 °F - 57.9 °F 59% 29.90 in 10.0 mi WNW 10.4 mph - N/A   Clear
11:55 PM 69.1 °F - 59.0 °F 70% 29.90 in 10.0 mi West 6.9 mph - N/A   Clear